Regional Weather Roundup
Issued by NWS

Home | Current Version | Previous Version | Graphics & Text | Print | Product List | Glossary On
Versions: 1 2 3 4 5 6 7 8 9 10 11 12 13 14 15 16 17 18 19 20 21 22 23 24 25 26 27 28 29 30 31 32 33 34 35 36 37 38 39 40 41 42 43 44 45 46 47 48 49 50
000
ASUS43 KOAX 300910
RWRNE

WEATHER ROUNDUP FOR NEBRASKA
NATIONAL WEATHER SERVICE OMAHA NE
400 AM CDT FRI SEP 30 2016

NOTES: SATELLITE DATA IS BEING USED TO AUGMENT CLOUD COVER ABOVE
       12000 FEET.
       "FAIR" INDICATES FEW OR NO CLOUDS BELOW 12,000 FEET WITH NO
       SIGNIFICANT WEATHER AND/OR OBSTRUCTIONS TO VISIBILITY.

  * THESE STATIONS DO NOT REPORT WEATHER SUCH AS RAIN...SNOW OR FOG.

NEZ001>004-019>022-054>056-301000-
NEBRASKA PANHANDLE

CITY           SKY/WX    TMP DP  RH WIND       PRES   REMARKS
SCOTTSBLUFF    CLOUDY    51  41  68 SE10      30.21F
ALLIANCE       CLOUDY    48  40  73 SE9       30.22F
CHADRON        PTCLDY    58  40  51 S9        30.16F
KIMBALL        CLOUDY    50  43  75 S8        30.23S
SIDNEY         CLOUDY    47  39  74 SE10      30.24F
$$

NEZ057>060-069>072-079>082-301000-
SOUTHWEST NEBRASKA

CITY           SKY/WX    TMP DP  RH WIND       PRES   REMARKS
NORTH PLATTE   CLEAR     43  40  89 E6        30.29S
IMPERIAL       CLOUDY    45  41  86 SE8       30.26F
LEXINGTON      CLEAR     43  40  90 E3        30.30F
MCCOOK         CLEAR     45  42  89 E6        30.29S
OGALLALA       CLEAR     50  44  78 SE3       30.27S
$$

NEZ005>010-023>029-035>040-094-301000-
NORTH CENTRAL NEBRASKA

CITY           SKY/WX    TMP DP  RH WIND       PRES   REMARKS
VALENTINE      CLEAR     52  42  69 S10       30.26F
AINSWORTH      CLEAR     46  44  90 S6        30.28F
BROKEN BOW     CLEAR     37  36  96 CALM      30.29F
O`NEILL        CLEAR     46  43  89 S3        30.31F
ORD            CLEAR     39  36  89 CALM      30.30F
THEDFORD       CLEAR     43  41  93 CALM      30.28F
$$

NEZ041-046>049-061>064-073>077-083>087-301000-
SOUTH CENTRAL NEBRASKA

CITY           SKY/WX    TMP DP  RH WIND       PRES   REMARKS
GRAND ISLAND   CLEAR     45  41  86 CALM      30.31F
AURORA         CLEAR     45  44  94 CALM      30.31F
HASTINGS       CLEAR     47  40  76 CALM      30.31F
HEBRON         CLEAR     42  41  97 CALM      30.30F
HOLDREGE       CLOUDY    41  39  91 CALM      30.30F
KEARNEY *      CLEAR     45  39  81 CALM      30.30F
YORK           CLEAR     43  41  93 CALM      30.32F
$$

NEZ011>018-030>034-042>045-301000-
NORTHEAST NEBRASKA

CITY           SKY/WX    TMP DP  RH WIND       PRES   REMARKS
NORFOLK        CLEAR     42  40  92 CALM      30.32F
ALBION         CLEAR     40  38  94 CALM      30.32S
BLAIR          CLEAR     51  47  85 N8        30.31S
FREMONT        CLEAR     44  44  97 CALM      30.31F
TEKAMAH        CLEAR     45  42  89 N5        30.32S
WAYNE          CLEAR     38  37  97 CALM      30.34F
$$

NEZ050>053-065>068-078-088>093-301000-
SOUTHEAST NEBRASKA

CITY           SKY/WX    TMP DP  RH WIND       PRES   REMARKS
LINCOLN        CLEAR     45  44  97 N5        30.32F
OMAHA EPPLEY   CLEAR     47  43  86 N7        30.31S
BEATRICE       CLEAR     44  43  97 CALM      30.30F
FALLS CITY     CLEAR     48  46  93 NW6       30.27F
NEBRASKA CITY  CLEAR     51  44  77 N6        30.29F
PLATTSMOUTH    CLEAR     49  44  84 CALM      30.30F
$$

NEZ044-045-051>053-067-301000-
OMAHA AREA

CITY           SKY/WX    TMP DP  RH WIND       PRES   REMARKS
OMAHA EPPLEY   CLEAR     47  43  86 N7        30.31S
BLAIR          CLEAR     51  47  85 N8        30.31S
FREMONT        CLEAR     44  44  97 CALM      30.31F
MILLARD        CLEAR     49  47  92 CALM      30.30F
OFFUTT AFB     CLEAR     47  46  99 NW2       30.29F
PLATTSMOUTH    CLEAR     49  44  84 CALM      30.30F
WAHOO          FAIR      46  44  93 NW5       30.31F
$$




USA.gov is the U.S. government's official web portal to all federal, state and local government web resources and services.